カタログに戻る

GAOFEN 7

運用中科学SSO
NORAD 44703·PAYLOAD·🇨🇳 China

打ち上げ Nov 3, 2019 から Taiyuan Satellite Launch Center

Loading…

次のパス (今後24時間)

TLE

最新Source: Space-Track

元期: Sep 14, 2026, 14:15 UTC

1 44703U 19072A   26257.59376359  .00003191  00000-0  14520-3 0  9995
2 44703  97.5628 318.6159 0020113  95.1822 265.1709 15.21282169381238

AllMySatでGAOFEN 7をリアルタイム追跡

Download on the App Store